Hillsboro, TX

5:29 AM CST on December 18, 2017 (GMT -0600)
Hillsboro

Weather History for KINJ - December, 2012

Change the Weather History Date:

Thursday, December 6, 2012

  Actual Average (KACT) Record (KACT)
Temperature  
Mean Temperature 60 °F -  
Max Temperature 69 °F 59 °F 82 °F (1966)
Min Temperature 51 °F 40 °F 15 °F (1950)
Degree Days  
Heating Degree Days 5    
Growing Degree Days 10 (Base 50)    
Moisture  
Dew Point 49 °F    
Average Humidity 71    
Maximum Humidity 94    
Minimum Humidity 40    
Precipitation  
Precipitation 0.00 in - - ()
Sea Level Pressure  
Sea Level Pressure 29.92 in    
Wind  
Wind Speed 11 mph (SSE)    
Max Wind Speed 17 mph    
Max Gust Speed 23 mph    
Visibility 8 miles    
Events      
Averages and records for this station are not official NWS values.
T = Trace of Precipitation, MM = Missing Value Source: NWS Daily Summary

Daily Weather History Graph

Daily Weather History Graph

Search for Another Location

Airport or City:

Trip Planner

Search our weather history database for the weather conditions in past years. The results will help you decide how hot, cold, wet, or windy it might be!

Date:

Astronomy

Dec. 06, 2012 Rise Set
Actual Time 7:15 AM CST 5:23 PM CST
Civil Twilight 6:48 AM CST 5:50 PM CST
Nautical Twilight 6:18 AM CST 6:20 PM CST
Astronomical Twilight 5:48 AM CST 6:50 PM CST
Moon No Moon Rise 12:29 PM CST (12/6)
Length of Visible Light 11h 01m
Length of Day
10h 08m
Waning Gibbous, 49% of the Moon is Illuminated
Dec 6
Waning Gibbous
Dec 13
New
Dec 19
First Quarter
Dec 28
Full
Jan 4
Last Quarter

Hourly Weather History & Observations

Time (CST) Temp. Dew Point Humidity Pressure Visibility Wind Dir Wind Speed Gust Speed Precip Events Conditions
12:15 AM 53.6 °F 48.2 °F 82% 30.05 in 10.0 mi SE 9.2 mph - N/A   Clear
12:35 AM 51.8 °F 48.2 °F 88% 30.04 in 10.0 mi SE 9.2 mph - N/A   Clear
12:55 AM 51.8 °F 50.0 °F 94% 30.03 in 7.0 mi SE 9.2 mph - N/A   Clear
1:15 AM 53.6 °F 50.0 °F 88% 30.03 in 5.0 mi SE 10.4 mph - N/A   Scattered Clouds
2:35 AM 51.8 °F 50.0 °F 94% 30.00 in 0.5 mi SE 10.4 mph - N/A   Drizzle
2:55 AM 51.8 °F 50.0 °F 94% 30.00 in 0.8 mi SE 10.4 mph - N/A   Drizzle
3:15 AM 51.8 °F 50.0 °F 94% 30.01 in 0.8 mi SSE 8.1 mph - N/A   Light Drizzle
3:35 AM 51.8 °F 50.0 °F 94% 30.01 in 0.8 mi South 8.1 mph - N/A   Overcast
3:55 AM 51.8 °F 50.0 °F 94% 30.00 in 1.2 mi South 6.9 mph - N/A   Overcast
4:15 AM 51.8 °F 50.0 °F 94% 29.98 in 2.5 mi South 8.1 mph - N/A   Overcast
7:35 AM 53.6 °F 51.8 °F 94% 29.99 in 5.0 mi South 10.4 mph - N/A   Overcast
7:55 AM 53.6 °F 50.0 °F 88% 29.99 in 5.0 mi South 12.7 mph - N/A   Overcast
8:15 AM 53.6 °F 51.8 °F 94% 30.00 in 4.0 mi SSE 10.4 mph - N/A   Overcast
8:35 AM 53.6 °F 51.8 °F 94% 29.99 in 4.0 mi South 12.7 mph - N/A   Overcast
9:15 AM 55.4 °F 51.8 °F 88% 29.99 in 4.0 mi South 10.4 mph - N/A   Overcast
9:35 AM 55.4 °F 51.8 °F 88% 29.99 in 5.0 mi South 11.5 mph - N/A   Overcast
9:55 AM 55.4 °F 51.8 °F 88% 29.99 in 5.0 mi South 12.7 mph 17.3 mph N/A   Overcast
10:15 AM 57.2 °F 51.8 °F 82% 29.98 in 7.0 mi South 16.1 mph - N/A   Overcast
10:35 AM 57.2 °F 51.8 °F 82% 29.98 in 7.0 mi South 16.1 mph - N/A   Overcast
10:55 AM 59.0 °F 51.8 °F 77% 29.97 in 7.0 mi South 12.7 mph - N/A   Overcast
11:15 AM 59.0 °F 51.8 °F 77% 29.96 in 10.0 mi South 15.0 mph - N/A   Overcast
11:35 AM 60.8 °F 51.8 °F 72% 29.96 in 10.0 mi South 11.5 mph - N/A   Overcast
11:55 AM 60.8 °F 50.0 °F 68% 29.95 in 10.0 mi South 16.1 mph - N/A   Mostly Cloudy
12:15 PM 60.8 °F 50.0 °F 68% 29.93 in 10.0 mi SSE 13.8 mph - N/A   Clear
12:35 PM 62.6 °F 50.0 °F 63% 29.91 in 10.0 mi SSE 15.0 mph 20.7 mph N/A   Clear
12:55 PM 62.6 °F 50.0 °F 63% 29.90 in 10.0 mi SSE 13.8 mph 18.4 mph N/A   Clear
1:15 PM 64.4 °F 50.0 °F 59% 29.88 in 10.0 mi South 13.8 mph 21.9 mph N/A   Clear
1:35 PM 66.2 °F 50.0 °F 56% 29.87 in 10.0 mi SSE 13.8 mph 19.6 mph N/A   Clear
1:55 PM 66.2 °F 50.0 °F 56% 29.86 in 10.0 mi SE 13.8 mph 23.0 mph N/A   Clear
2:15 PM 68.0 °F 50.0 °F 52% 29.85 in 10.0 mi SSE 16.1 mph 20.7 mph N/A   Clear
2:35 PM 68.0 °F 50.0 °F 52% 29.84 in 10.0 mi SSE 13.8 mph 19.6 mph N/A   Clear
2:55 PM 69.8 °F 48.2 °F 46% 29.85 in 10.0 mi South 12.7 mph 21.9 mph N/A   Clear
3:15 PM 69.8 °F 46.4 °F 43% 29.84 in 10.0 mi SSE 17.3 mph - N/A   Clear
3:35 PM 69.8 °F 46.4 °F 43% 29.83 in 10.0 mi SSE 16.1 mph 21.9 mph N/A   Clear
3:55 PM 69.8 °F 46.4 °F 43% 29.83 in 10.0 mi SSE 15.0 mph 20.7 mph N/A   Clear
4:15 PM 69.8 °F 44.6 °F 40% 29.83 in 10.0 mi South 16.1 mph - N/A   Clear
4:35 PM 69.8 °F 46.4 °F 43% 29.82 in 10.0 mi SSE 15.0 mph - N/A   Clear
6:55 PM 62.6 °F 44.6 °F 52% 29.84 in 10.0 mi SSE 10.4 mph - N/A   Clear
7:15 PM 62.6 °F 44.6 °F 52% 29.84 in 10.0 mi SSE 10.4 mph - N/A   Clear
7:35 PM 62.6 °F 44.6 °F 52% 29.84 in 10.0 mi SSE 10.4 mph - N/A   Clear
7:55 PM 62.6 °F 44.6 °F 52% 29.84 in 10.0 mi SE 9.2 mph - N/A   Clear
8:35 PM 60.8 °F 44.6 °F 55% 29.84 in 10.0 mi SE 12.7 mph - N/A   Clear
8:55 PM 60.8 °F 46.4 °F 59% 29.84 in 10.0 mi SSE 11.5 mph - N/A   Clear
9:15 PM 60.8 °F 46.4 °F 59% 29.84 in 10.0 mi SE 12.7 mph - N/A   Clear
9:35 PM 60.8 °F 48.2 °F 63% 29.85 in 10.0 mi SSE 13.8 mph - N/A   Clear
9:55 PM 60.8 °F 48.2 °F 63% 29.85 in 10.0 mi SSE 12.7 mph - N/A   Clear
10:15 PM 59.0 °F 50.0 °F 72% 29.85 in 10.0 mi SSE 11.5 mph - N/A   Clear
10:35 PM 59.0 °F 50.0 °F 72% 29.85 in 10.0 mi SSE 12.7 mph - N/A   Clear
10:55 PM 59.0 °F 50.0 °F 72% 29.85 in 10.0 mi SSE 10.4 mph - N/A   Clear
11:15 PM 59.0 °F 50.0 °F 72% 29.85 in 10.0 mi SSE 9.2 mph - N/A   Clear
11:35 PM 59.0 °F 51.8 °F 77% 29.85 in 10.0 mi SSE 10.4 mph - N/A   Clear
11:55 PM 59.0 °F 51.8 °F 77% 29.85 in 10.0 mi South 9.2 mph - N/A   Clear